Flag for Cameroon Weather past 2 weeks in Yaoundé, Cameroon

Now
79 °F

Partly sunny.


Feels Like: 81 °F
Forecast: 67 / 82 °F
Wind: 2 mph from North

Location: Yaounde Airport

Current Time: May 27, 2015 at 6:13:42 PM

Latest Report: May 27, 2015 at 5:00 PM


Visibility: N/A

Pressure: 29.95 "Hg

Humidity: 74%

Dew point: 70 °F

Location of YaoundéLocation

Historic Weather in Yaoundé — Graph

°F

Yaoundé temperature yesterday

Maximum temperature yesterday: 90 °F (at 1:00 PM)
Minimum temperature yesterday: 70 °F (at 12:00 AM)
Average temperature yesterday: 78 °F

Past Weeks' High & Low Weather Summary

 TemperatureHumidityPressure
High91 °F (May 17, 3:00 PM)100% (May 13, 1:00 AM)30.12 "Hg (May 13, 1:00 AM)
Low63 °F (May 22, 6:00 AM)46% (May 19, 1:00 PM)29.89 "Hg (May 14, 4:00 PM)
Average76 °F83%30.02 "Hg
* Reported May 12 5:00 PM — May 27 5:00 PM, Yaoundé, Weather by CustomWeather, © 2015

Note: Actual official high and low records may vary slightly from our data, if they occured in-between our weather recording intervals... More about our weather records

Advertising

Yaoundé weather history for previous 24 hours

 ConditionsComfort  
Time TempWeatherWind HumidityBarometerVisibility
5:00 PM
Wed, May 27
79 °FPartly sunny.2 mph74%29.95 "HgN/A
4:00 PM77 °FThunderstorms. Broken clouds.1 mph89%29.95 "Hg5 mi
3:00 PM82 °FThunderstorms. Broken clouds.2 mph62%29.95 "HgN/A
10:00 AM79 °FPartly sunny.3 mph74%30.07 "HgN/A
9:00 AM77 °FPartly sunny.5 mph79%30.09 "HgN/A
8:00 AM73 °FPartly sunny.2 mph89%30.07 "HgN/A
7:00 AM72 °FPartly sunny.No wind94%30.07 "HgN/A
4:00 AM73 °FPassing clouds.3 mph89%30.01 "HgN/A
3:00 AM73 °FPassing clouds.3 mph89%29.98 "HgN/A
2:00 AM73 °FPassing clouds.5 mph89%29.98 "HgN/A
1:00 AM73 °FPassing clouds.5 mph94%30.01 "HgN/A
12:00 AM73 °FPassing clouds.3 mph94%30.01 "HgN/A
11:00 PM
Tue, May 26
75 °FPassing clouds.6 mph89%30.04 "HgN/A
10:00 PM75 °FPassing clouds.8 mph89%30.04 "HgN/A
9:00 PM73 °FPassing clouds.2 mph94%30.01 "HgN/A
8:00 PM77 °FPassing clouds.2 mph83%29.98 "HgN/A
7:00 PM77 °FPassing clouds.No wind83%29.95 "HgN/A
6:00 PM82 °FPassing clouds.1 mph66%29.95 "HgN/A
Weather by CustomWeather, © 2015

See weather overviewHow to use our weather pages